Location: Mount Kobau Star Party
(49.1167°N, 119.7333°W)
Time: 03:45:23
(UTC-07:00)

Altair - All Passes

Search period start: 08 July 2025 00:00
Search period end: 18 July 2025 00:00
Orbit: 1502 x 1682 km, 47.2° (Epoch: 08 July)

Date Brightness Start Highest point End Pass type
(mag) Time Alt. Az. Time Alt. Az. Time Alt. Az.
08 Jul - 00:43:31 10° WNW 00:52:05 45° SW 01:00:53 10° SE visible
08 Jul - 02:50:05 10° W 02:54:56 15° SW 02:59:52 10° SSW visible
08 Jul - 16:09:31 10° SE 16:12:02 11° ESE 16:14:33 10° ESE daylight
08 Jul - 18:06:17 10° SSW 18:14:35 39° SE 18:22:49 10° ENE daylight
08 Jul - 20:09:15 10° WSW 20:18:23 73° SSE 20:27:34 10° E daylight
08 Jul - 22:13:43 10° W 22:22:52 78° S 22:32:12 10° ESE visible
09 Jul - 00:18:18 10° WNW 00:26:57 48° SSW 00:35:49 10° SE visible
09 Jul - 02:24:28 10° W 02:29:53 17° SW 02:35:23 10° SSW visible
09 Jul - 17:41:18 10° SSW 17:49:28 37° SE 17:57:34 10° E daylight
09 Jul - 19:44:04 10° WSW 19:53:12 71° SSE 20:02:21 10° E daylight
09 Jul - 21:48:30 10° W 21:57:41 79° S 22:06:58 10° ESE visible
09 Jul - 23:53:05 10° WNW 00:01:49 50° SSW 00:10:45 10° SE visible
10 Jul - 01:58:57 10° W 02:04:50 19° SW 02:10:48 10° S visible
10 Jul - 17:16:21 10° SSW 17:24:22 34° SE 17:32:18 10° E daylight
10 Jul - 19:18:54 10° WSW 19:28:01 69° SSE 19:37:07 10° E daylight
10 Jul - 21:23:18 10° W 21:32:28 80° S 21:41:45 10° ESE visible
10 Jul - 23:27:52 10° WNW 23:36:40 53° SSW 23:45:38 10° SE visible
11 Jul - 01:33:30 10° W 01:39:46 21° SW 01:46:09 10° S visible
11 Jul - 16:51:25 10° SSW 16:59:16 32° SE 17:07:02 10° E daylight
11 Jul - 18:53:45 10° WSW 19:02:50 67° SSE 19:11:54 10° E daylight
11 Jul - 20:58:05 10° W 21:07:16 80° S 21:16:32 10° E daylight
11 Jul - 23:02:39 10° WNW 23:11:30 56° SSW 23:20:32 10° SE visible
12 Jul - 01:08:04 10° W 01:14:41 23° SW 01:21:26 10° S visible
12 Jul - 16:26:31 10° SSW 16:34:11 30° SE 16:41:44 10° E daylight
12 Jul - 18:28:35 10° WSW 18:37:40 65° SSE 18:46:41 10° E daylight
12 Jul - 20:32:52 10° W 20:42:03 81° S 20:51:18 10° E daylight
12 Jul - 22:37:26 10° WNW 22:46:21 58° SSW 22:55:24 10° SE visible
13 Jul - 00:42:42 10° W 00:49:37 25° SW 00:56:40 10° S visible
13 Jul - 16:01:39 10° S 16:09:06 28° SE 16:16:25 10° E daylight
13 Jul - 18:03:26 10° SW 18:12:29 62° SSE 18:21:29 10° E daylight
13 Jul - 20:07:39 10° W 20:16:51 81° S 20:26:05 10° E daylight
13 Jul - 22:12:14 10° W 22:21:11 61° SSW 22:30:16 10° SE visible
14 Jul - 00:17:21 10° W 00:24:33 27° SW 00:31:52 10° S visible
14 Jul - 15:36:48 10° S 15:44:01 26° SE 15:51:05 10° E daylight
14 Jul - 17:38:17 10° SW 17:47:20 60° SSE 17:56:16 10° E daylight
14 Jul - 19:42:26 10° W 19:51:38 81° S 20:00:52 10° E daylight
14 Jul - 21:47:01 10° W 21:56:01 63° SSW 22:05:07 10° SE visible
14 Jul - 23:52:02 10° W 23:59:28 29° SW 00:07:00 10° S visible
15 Jul - 15:12:01 10° S 15:18:56 24° SE 15:25:43 10° E daylight
15 Jul - 17:13:09 10° SW 17:22:10 57° SSE 17:31:04 10° ENE daylight
15 Jul - 19:17:12 10° W 19:26:27 81° S 19:35:38 10° E daylight
15 Jul - 21:21:48 10° W 21:30:51 66° SSW 21:39:58 10° ESE visible
15 Jul - 23:26:44 10° W 23:34:23 31° SW 23:42:08 10° SSE visible
16 Jul - 14:47:17 10° S 14:53:52 22° SE 15:00:21 10° E daylight
16 Jul - 16:48:02 10° SW 16:57:01 55° SSE 17:05:51 10° ENE daylight
16 Jul - 18:51:59 10° W 19:01:14 80° S 19:10:25 10° E daylight
16 Jul - 20:56:36 10° W 21:05:40 68° SSW 21:14:47 10° ESE daylight
16 Jul - 23:01:27 10° W 23:09:16 33° SW 23:17:13 10° SSE visible
17 Jul - 14:22:35 10° S 14:28:48 20° SE 14:34:54 10° E daylight
17 Jul - 16:22:56 10° SW 16:31:52 52° SSE 16:40:38 10° ENE daylight
17 Jul - 18:26:46 10° WSW 18:36:02 79° S 18:45:12 10° E daylight
17 Jul - 20:31:22 10° W 20:40:29 70° SSW 20:49:37 10° ESE daylight
17 Jul - 22:36:10 10° W 22:44:10 35° SW 22:52:17 10° SSE visible
